Tuscaloosa, AL

7:40 PM CDT on March 28, 2017 (GMT -0500)
Tuscaloosa Municipal

Weather History for KTCL - January, 2014

Change the Weather History Date:

Saturday, January 18, 2014

  Actual Average Record
Temperature  
Mean Temperature 37 °F 44 °F  
Max Temperature 53 °F 55 °F 74 °F (1950)
Min Temperature 20 °F 34 °F 8 °F (1977)
Degree Days  
Heating Degree Days 28 21  
Month to date heating degree days 451 373  
Since 1 July heating degree days 1455 1374  
Moisture  
Dew Point 18 °F    
Average Humidity 55    
Maximum Humidity 88    
Minimum Humidity 22    
Precipitation  
Precipitation 0.00 in 0.17 in 3.15 in (1987)
Month to date precipitation 2.09 2.90  
Year to date precipitation 2.09 2.90  
Sea Level Pressure  
Sea Level Pressure 30.14 in    
Wind  
Wind Speed 6 mph (South)    
Max Wind Speed 16 mph    
Max Gust Speed 21 mph    
Visibility 10 miles    
Events      
T = Trace of Precipitation, MM = Missing Value Source: NWS Daily Summary

Daily Weather History Graph

Daily Weather History Graph

Search for Another Location

Airport or City:

Trip Planner

Search our weather history database for the weather conditions in past years. The results will help you decide how hot, cold, wet, or windy it might be!

Date:

Astronomy

Jan. 18, 2014 Rise Set
Actual Time 6:53 AM CST 5:08 PM CST
Civil Twilight 6:26 AM CST 5:35 PM CST
Nautical Twilight 5:56 AM CST 6:05 PM CST
Astronomical Twilight 5:26 AM CST 6:35 PM CST
Moon 7:40 PM CST (1/18) 8:01 AM CST (1/18)
Length of Visible Light 11h 09m
Length of Day
10h 15m
Waning Gibbous, 94% of the Moon is Illuminated
Jan 18
Waning Gibbous
Jan 23
Last Quarter
Jan 30
New
Feb 6
First Quarter
Feb 14
Full

Hourly Weather History & Observations

Time (CST) Temp. Windchill Dew Point Humidity Pressure Visibility Wind Dir Wind Speed Gust Speed Precip Events Conditions
12:53 AM 26.1 °F - 19.0 °F 75% 30.23 in 10.0 mi Calm Calm - N/A   Clear
1:53 AM 25.0 °F - 16.0 °F 69% 30.23 in 10.0 mi Calm Calm - N/A   Clear
2:53 AM 24.1 °F - 17.1 °F 75% 30.24 in 10.0 mi Calm Calm - N/A   Clear
3:53 AM 23.0 °F - 17.1 °F 78% 30.24 in 10.0 mi Calm Calm - N/A   Clear
4:53 AM 21.9 °F - 17.1 °F 82% 30.25 in 10.0 mi Calm Calm - N/A   Clear
5:53 AM 21.0 °F - 16.0 °F 81% 30.25 in 10.0 mi Calm Calm - N/A   Clear
6:53 AM 21.0 °F - 16.0 °F 81% 30.25 in 10.0 mi Calm Calm - N/A   Clear
7:53 AM 25.0 °F - 21.0 °F 85% 30.27 in 10.0 mi Calm Calm - N/A   Clear
8:53 AM 30.9 °F 26.2 °F 21.0 °F 67% 30.28 in 10.0 mi SSW 4.6 mph - N/A   Clear
9:53 AM 37.0 °F 31.6 °F 18.0 °F 46% 30.27 in 10.0 mi South 6.9 mph - N/A   Clear
10:53 AM 41.0 °F 34.7 °F 14.0 °F 33% 30.25 in 10.0 mi South 10.4 mph - N/A   Clear
11:53 AM 45.0 °F 40.6 °F 12.9 °F 27% 30.20 in 10.0 mi SW 8.1 mph - N/A   Clear
12:53 PM 48.0 °F - 12.9 °F 24% 30.14 in 10.0 mi South 11.5 mph - N/A   Clear
1:53 PM 51.1 °F - 14.0 °F 23% 30.10 in 10.0 mi South 15.0 mph - N/A   Clear
2:53 PM 52.0 °F - 15.1 °F 23% 30.07 in 10.0 mi South 15.0 mph - N/A   Clear
3:53 PM 52.0 °F - 16.0 °F 24% 30.06 in 10.0 mi South 10.4 mph - N/A   Clear
4:53 PM 51.1 °F - 17.1 °F 26% 30.03 in 10.0 mi South 9.2 mph - N/A   Clear
5:53 PM 48.0 °F - 18.0 °F 30% 30.02 in 10.0 mi South 8.1 mph - N/A   Clear
6:53 PM 46.0 °F 41.4 °F 19.0 °F 34% 30.00 in 10.0 mi South 9.2 mph - N/A   Clear
7:53 PM 46.0 °F 41.9 °F 19.0 °F 34% 29.99 in 10.0 mi South 8.1 mph - N/A   Clear
8:53 PM 44.1 °F 41.5 °F 19.0 °F 37% 30.01 in 10.0 mi South 4.6 mph - N/A   Clear
9:53 PM 42.1 °F 38.4 °F 21.0 °F 43% 30.02 in 10.0 mi South 5.8 mph - N/A   Clear
10:53 PM 45.0 °F 41.2 °F 24.1 °F 44% 30.01 in 10.0 mi South 6.9 mph - N/A   Clear
11:53 PM 46.9 °F - 25.0 °F 42% 29.99 in 10.0 mi SSW 9.2 mph - N/A   Clear